Regional Weather Roundup
Issued by NWS

Home | Current Version | Previous Version | Text Only | Print | Product List | Glossary On
Versions: 1 2 3 4 5 6 7 8 9 10 11 12 13 14 15 16 17 18 19 20 21 22 23 24 25 26 27 28 29 30 31 32 33 34 35 36 37 38 39 40 41 42 43 44 45 46 47 48 49 50
000
ASUS43 KOAX 281810
RWRNE

WEATHER ROUNDUP FOR NEBRASKA
NATIONAL WEATHER SERVICE OMAHA NE
100 PM CDT TUE APR 28 2015

NOTES: SATELLITE DATA IS BEING USED TO AUGMENT CLOUD COVER ABOVE
       12000 FEET.
       "FAIR" INDICATES FEW OR NO CLOUDS BELOW 12,000 FEET WITH NO
       SIGNIFICANT WEATHER AND/OR OBSTRUCTIONS TO VISIBILITY.

  * THESE STATIONS DO NOT REPORT WEATHER SUCH AS RAIN...SNOW OR FOG.

NEZ001>004-019>022-054>056-281900-
NEBRASKA PANHANDLE

CITY           SKY/WX    TMP DP  RH WIND       PRES   REMARKS
SCOTTSBLUFF    PTSUNNY   57  43  59 VRB3      30.31F
6HR MIN TEMP:  43; 6HR MAX TEMP:  57;

ALLIANCE       CLOUDY    56  40  55 NW3       30.29F
6HR MIN TEMP:  42; 6HR MAX TEMP:  56;

CHADRON        PTSUNNY   56  42  59 NW5       30.29F
6HR MIN TEMP:  44; 6HR MAX TEMP:  58;

KIMBALL        CLOUDY    49  40  70 S8        30.30F
SIDNEY         PTSUNNY   55  42  61 CALM      30.31F
6HR MIN TEMP:  41; 6HR MAX TEMP:  56;

$$

NEZ057>060-069>072-079>082-281900-
SOUTHWEST NEBRASKA

CITY           SKY/WX    TMP DP  RH WIND       PRES   REMARKS
NORTH PLATTE   SUNNY     62  41  46 VRB6      30.28F
6HR MIN TEMP:  41; 6HR MAX TEMP:  63;

IMPERIAL       PTSUNNY   59  39  47 VRB3      30.29F
6HR MIN TEMP:  39; 6HR MAX TEMP:  61;

LEXINGTON      SUNNY     62  43  49 N9        30.26F
MCCOOK         MOSUNNY   66  40  38 NW7       30.26F
6HR MIN TEMP:  42; 6HR MAX TEMP:  67;

OGALLALA       CLOUDY    58  41  53 W5        30.30F
$$

NEZ005>010-023>029-035>040-094-281900-
NORTH CENTRAL NEBRASKA

CITY           SKY/WX    TMP DP  RH WIND       PRES   REMARKS
VALENTINE      PTSUNNY   57  38  48 W10G16    30.30F
6HR MIN TEMP:  40; 6HR MAX TEMP:  57;

AINSWORTH      MOSUNNY   57  38  50 NW14      30.29F
BROKEN BOW     SUNNY     64  39  39 N16G23    30.25F
6HR MIN TEMP:  43; 6HR MAX TEMP:  64;

O`NEILL        SUNNY     60  40  47 N15       30.26F
ORD            SUNNY     62  42  47 N13G22    30.24F
6HR MIN TEMP:  41; 6HR MAX TEMP:  62;

THEDFORD       PTSUNNY   58  42  56 N9        30.30F
$$

NEZ041-046>049-061>064-073>077-083>087-281900-
SOUTH CENTRAL NEBRASKA

CITY           SKY/WX    TMP DP  RH WIND       PRES   REMARKS
GRAND ISLAND   MOSUNNY   64  44  48 N15G23    30.23F
6HR MIN TEMP:  40; 6HR MAX TEMP:  65;

AURORA         MOSUNNY   64  43  45 N14G20    30.22F
HASTINGS       FAIR      64  45  49 N16       30.23F
6HR MIN TEMP:  42; 6HR MAX TEMP:  64;

HEBRON         SUNNY     67  31  25 E7        30.19F
HOLDREGE       SUNNY     64  39  41 N10G18    30.24F
KEARNEY *      MOSUNNY   64  45  48 N13       30.25F
YORK           SUNNY     64  45  48 N12G17    30.21F
$$

NEZ011>018-030>034-042>045-281900-
NORTHEAST NEBRASKA

CITY           SKY/WX    TMP DP  RH WIND       PRES   REMARKS
NORFOLK        MOSUNNY   64  45  49 NW18G29   30.21F
6HR MIN TEMP:  44; 6HR MAX TEMP:  65;

ALBION         SUNNY     62  44  50 N14G22    30.22F
BLAIR          SUNNY     67  36  31 W8        30.17F
COLUMBUS *     SUNNY     64  43  45 N13       30.22F
FREMONT        MOSUNNY   67  41  39 W6        30.19F
TEKAMAH        MOSUNNY   70  38  31 N9        30.16F
6HR MIN TEMP:  40; 6HR MAX TEMP:  71;

WAYNE          MOSUNNY   64  44  47 N13G23    30.21F
$$

NEZ050>053-065>068-078-088>093-281900-
SOUTHEAST NEBRASKA

CITY           SKY/WX    TMP DP  RH WIND       PRES   REMARKS
LINCOLN        SUNNY     70  35  27 NW7       30.19F
6HR MIN TEMP:  36; 6HR MAX TEMP:  70;

OMAHA EPPLEY   PTSUNNY   70  39  32 NW8       30.16F
6HR MIN TEMP:  41; 6HR MAX TEMP:  70;

BEATRICE       SUNNY     69  30  23 N9        30.17F
FALLS CITY     SUNNY     70  35  27 N13G22    30.15F
6HR MIN TEMP:  42; 6HR MAX TEMP:  70;

NEBRASKA CITY  SUNNY     68  20  16 NE5       30.16F
PLATTSMOUTH    SUNNY     69  27  21 N6        30.16F
$$

NEZ044-045-051>053-067-281900-
OMAHA AREA

CITY           SKY/WX    TMP DP  RH WIND       PRES   REMARKS
OMAHA EPPLEY   PTSUNNY   70  39  32 NW8       30.16F
6HR MIN TEMP:  41; 6HR MAX TEMP:  70;

BLAIR          SUNNY     67  36  31 W8        30.17F
FREMONT        MOSUNNY   67  41  39 W6        30.19F
MILLARD        SUNNY     68  43  40 NW8       30.17F
OFFUTT AFB     SUNNY     69  38  31 NW8       30.15F
PLATTSMOUTH    SUNNY     69  27  21 N6        30.16F
WAHOO          FAIR      69  33  26 N9        30.17F
$$


USA.gov is the U.S. government's official web portal to all federal, state and local government web resources and services.